Find Starlink 30792

NORAD ID: 58220 Int'l Des: 2023-170 Owner: SPXS Country: US Constellation: starlink operational
LEOCIRCULAR

当前视图

正在加载3D地球...

About Starlink 30792

Starlink 30792 (NORAD 58220) is a starlink constellation satellite (v2 mini) launched Nov 4, 2023 by SPXS of US. It operates in LEO, CIRCULAR orbit with a mass of 730.00 kg.

关于 Starlink 30792

正在加载描述...

即将过境

Passes for default location (London). Set your location on the main map for personalized predictions.

高度历史

Loading altitude history...

两行轨道根数

1 58220U 23170Q 26169.89581502 .00015090 00000-0 97469-3 0 9995
2 58220 43.0003 2.5737 0008268 257.1564 102.8357 15.08026465145549
Epoch: Jun 18, 2026 • Age: 18 hours

当前状态

高度 541.2 km
速度 7.59 km/s
星下点 1.90°N, 31.97°E
发射日期 Nov 4, 2023
运行时间 2.6 years
类型 internet

技术详情

分类 Payload
质量 730.00 kg
干质量 700.00 kg
总质量 730.00 kg
长度 0.30 m
直径 4.10 m
跨度 29.00 m
形状 Box + pan
制造商 SPXS
平台类型 Starlink V2M
阶段状态 In Orbit
所有者/国家 SPXS/US

Most Searched